Weather Service Report


954 
ASUS44 KEWX 300610
RWRTX 
SOUTH TEXAS REGIONAL WEATHER ROUNDUP
NATIONAL WEATHER SERVICE AUSTIN/SAN ANTONIO TX
100 AM CDT TUE SEP 30 2014

NOTE: "FAIR" INDICATED FEW OR NO CLOUDS BELOW 12,000 FEET WITH NO
SIGNIFICANT WEATHER AND/OR OBSTRUCTIONS TO VISIBILITY.

* - THESE STATIONS ARE NOT NWS OR FAA STATIONS...AND ARE NOT SUBJECT
    TO NWS AND FAA QUALITY CONTROL.
 
TXZ171-172-183>190-300700-
TEXAS HILL COUNTRY AND EDWARDS PLATEAU
  
CITY           SKY/WX    TMP DP  RH WIND       PRES   REMARKS
JUNCTION       CLEAR     70  61  73 CALM      29.94F                  
6HR MIN TEMP:  70; 6HR MAX TEMP:  83;                                

*LLANO         CLEAR     66  63  88 CALM      29.95F                  
BURNET         CLEAR     69  60  73 CALM      29.95S                  
6HR MIN TEMP:  69; 6HR MAX TEMP:  85;                                

*HORSESHOE BAY CLEAR     72  60  65 S3        29.92F                  
6HR MIN TEMP:  72; 6HR MAX TEMP:  85;                                

*KERRVILLE     CLEAR     64  61  91 CALM      29.95S                  
6HR MIN TEMP:  64; 6HR MAX TEMP:  82;                                

*FREDERICKSBRG CLEAR     63  60  90 CALM      29.95S                  
6HR MIN TEMP:  63; 6HR MAX TEMP:  80;                                

*ROCKSPRINGS   PTCLDY    68  63  83 CALM      29.98S                  
*BOERNE STAGE  CLEAR     63  59  88 CALM      29.94F                  
*CASTROVILLE   CLEAR     69  64  85 NW5       29.92S                  
HONDO          CLEAR     68  63  84 N6        29.92F                  
6HR MIN TEMP:  68; 6HR MAX TEMP:  84;                                

*UVALDE        CLEAR     73  70  92 CALM      29.91F                  
6HR MIN TEMP:  72; 6HR MAX TEMP:  84;                                

DEL RIO        CLEAR     74  67  78 SE6       29.89S                  
6HR MIN TEMP:  74; 6HR MAX TEMP:  85;                                

LAUGHLIN AFB   CLEAR     73  68  84 S6        29.89F                  
6HR MIN TEMP:  73; 6HR MAX TEMP:  84;                                

CARRIZO SPRGS  NOT AVBL                                               
$$

TXZ173-191>194-202-209-217>225-228-300700-
CENTRAL AND SOUTH CENTRAL TEXAS
  
CITY           SKY/WX    TMP DP  RH WIND       PRES   REMARKS
GEORGETOWN     CLEAR     68  61  77 CALM      29.91S                  
6HR MIN TEMP:  66; 6HR MAX TEMP:  84;                                

AUSTIN/BERGSTM CLEAR     68  63  84 CALM      29.89S                  
6HR MIN TEMP:  67; 6HR MAX TEMP:  84;                                

AUSTIN/MABRY   CLEAR     71  64  78 CALM      29.90F                  
6HR MIN TEMP:  71; 6HR MAX TEMP:  84;                                

*AUSTIN/EXEC   CLEAR     70  63  78 CALM      29.90S                  
*LAGO VISTA    CLEAR     74  62  65 W3        29.93S                  
6HR MIN TEMP:  74; 6HR MAX TEMP:  82;                                

SAN MARCOS     CLEAR     70  57  64 NW6       29.90F                  
6HR MIN TEMP:  68; 6HR MAX TEMP:  84;                                

NEW BRAUNFELS  CLEAR     70  63  78 CALM      29.88F                  
6HR MIN TEMP:  69; 6HR MAX TEMP:  85;                                

RANDOLPH AFB   CLEAR     69  64  83 NW3       29.90F                  
6HR MIN TEMP:  69; 6HR MAX TEMP:  84;                                

PT SAN ANTONIO CLEAR     71  64  81 CALM      29.88F                  
6HR MIN TEMP:  71; 6HR MAX TEMP:  86;                                

SAN ANTONIO    CLEAR     73  64  73 NW3       29.90F                  
6HR MIN TEMP:  72; 6HR MAX TEMP:  86;                                

STINSON FIELD  CLEAR     71  66  84 CALM      29.88S                  
6HR MIN TEMP:  71; 6HR MAX TEMP:  86;                                

*PLEASANTON    CLEAR     70  66  88 CALM      29.89F                  
6HR MIN TEMP:  70; 6HR MAX TEMP:  85;                                

*LA GRANGE     CLEAR     71  67  86 CALM      29.86S                  
6HR MIN TEMP:  71; 6HR MAX TEMP:  85;                                

*GIDDINGS      CLEAR     68  64  84 CALM      29.91S                  
6HR MIN TEMP:  68; 6HR MAX TEMP:  81;                                

*GONZALES      CLEAR     71  67  86 CALM      29.88S                  
6HR MIN TEMP:  70; 6HR MAX TEMP:  84;                                

$$

TXZ163>164-176>182-195>201-210>213-226-227-235-300700-
SOUTHEAST TEXAS
  
CITY           SKY/WX    TMP DP  RH WIND       PRES   REMARKS
COLLEGE STN    CLEAR     75  68  78 CALM      29.88S                  
6HR MIN TEMP:  75; 6HR MAX TEMP:  85;                                

*BRYAN         CLEAR    N/A N/A N/A CALM      29.88S                  
*CALDWELL      CLEAR     70  64  83 CALM      29.91F                  
*CROCKETT      CLEAR     73  72  94 NE3       29.92S                  
*BRENHAM       CLEAR     73  68  86 CALM      29.88S                  
6HR MIN TEMP:  72; 6HR MAX TEMP:  86;                                

HUNTSVILLE     CLEAR     73  69  87 CALM      29.89S                  
6HR MIN TEMP:  72; 6HR MAX TEMP:  84;                                

CONROE         CLEAR     69  68  96 CALM      29.88F                  
6HR MIN TEMP:  69; 6HR MAX TEMP:  82;                                

HOUSTON BUSH   PTCLDY    74  71  91 E5        29.86F                  
6HR MIN TEMP:  74; 6HR MAX TEMP:  82;                                

HOUSTON HOBBY  PTCLDY    75  73  93 CALM      29.86F                  
6HR MIN TEMP:  75; 6HR MAX TEMP:  83;                                

*HOUSTON SW AP   N/A     62  62 100 CALM      29.87F FOG              
6HR MIN TEMP:  62; 6HR MAX TEMP:  75;                                

PEARLAND       CLEAR     75  71  87 CALM      29.87F                  
6HR MIN TEMP:  75; 6HR MAX TEMP:  85;                                

HOUSTON HOOKS  CLEAR     75  71  87 E3        29.87F                  
6HR MIN TEMP:  72; 6HR MAX TEMP:  84;                                

ELLINGTON FLD  PTCLDY    77  73  88 CALM      29.88F                  
SUGAR LAND     CLEAR     75  71  87 CALM      29.86F                  
6HR MIN TEMP:  74; 6HR MAX TEMP:  84;                                

*HOUSTON EXEC  PTCLDY    73  73 100 S5        29.87F                  
*CLEVELAND MUN CLEAR     71  70  98 CALM      29.88F FOG              
6HR MIN TEMP:  71; 6HR MAX TEMP:  80;                                

*WHARTON       CLEAR     72  71  96 CALM      29.87F FOG              
6HR MIN TEMP:  72; 6HR MAX TEMP:  82;                                

*COLUMBUS      NOT AVBL                                               
$$

TXZ214>216-236>238-300700-
THE UPPER TEXAS COAST
  
CITY           SKY/WX    TMP DP  RH WIND       PRES   REMARKS
*ORANGE        MOCLDY    74  74 100 CALM      29.88F                  
6HR MIN TEMP:  74; 6HR MAX TEMP:  81;                                

PORT ARTHUR    CLEAR     77  72  84 NE5       29.86F                  
6HR MIN TEMP:  76; 6HR MAX TEMP:  83;                                

GALVESTON      CLEAR     77  74  90 NE3       29.86F                  
6HR MIN TEMP:  77; 6HR MAX TEMP:  80;                                

ANGLETON       CLEAR     72  70  93 CALM      29.86F                  
6HR MIN TEMP:  71; 6HR MAX TEMP:  79;                                

*BAY CITY      CLEAR    N/A N/A N/A CALM      29.85F                  
PALACIOS       PTCLDY    76  73  91 E6        29.85F                  
6HR MIN TEMP:  76; 6HR MAX TEMP:  81;                                

$$

TXZ229>234-239>247-300700-
TEXAS COASTAL BEND AND RIO GRANDE PLAINS
  
CITY           SKY/WX    TMP DP  RH WIND       PRES   REMARKS
VICTORIA       CLEAR     74  73  97 CALM      29.87F FOG              
6HR MIN TEMP:  74; 6HR MAX TEMP:  84;                                

*BEEVILLE      CLEAR     75  74  98 CALM      29.88S                  
6HR MIN TEMP:  74; 6HR MAX TEMP:  84;                                

ROCKPORT       CLEAR     79  75  87 SE6       29.85F                  
6HR MIN TEMP:  79; 6HR MAX TEMP:  81;                                

*PORT ARANSAS  CLEAR     79  74  85 E7        29.85F                  
6HR MIN TEMP:  79; 6HR MAX TEMP:  81;                                

*PORT LAVACA   CLEAR     75  73  93 CALM      29.86S                  
6HR MIN TEMP:  75; 6HR MAX TEMP:  80;                                

*INGLESIDE     CLEAR     79  74  86 E5        29.85F                  
CORPUS CHRISTI PTCLDY    75  73  93 CALM      29.86F                  
6HR MIN TEMP:  75; 6HR MAX TEMP:  82;                                

CORPUS NAS     CLEAR     79  76  90 E6        29.85F                  
6HR MIN TEMP:  79; 6HR MAX TEMP:  82;                                

*ROBSTOWN      NOT AVBL                                               
ALICE          PTCLDY    76  73  91 CALM      29.87F                  
6HR MIN TEMP:  76; 6HR MAX TEMP:  80;                                

KINGSVILLE NAS CLEAR     74  74 100 NW5       29.86F                  
6HR MIN TEMP:  74; 6HR MAX TEMP:  81;                                

COTULLA        CLEAR     75  66  73 S3        29.89S                  
6HR MIN TEMP:  75; 6HR MAX TEMP:  85;                                

*FAITH RANCH   CLEAR     73  68  83 SE5       29.90F                  
LAREDO         CLEAR     76  72  87 S6        29.92S                  
6HR MIN TEMP:  76; 6HR MAX TEMP:  84;                                

$$

TXZ248>255-300700-
DEEP SOUTH TEXAS
  
CITY           SKY/WX    TMP DP  RH WIND       PRES   REMARKS
BROWNSVILLE    CLEAR     76  76 100 CALM      29.85F                  
6HR MIN TEMP:  75; 6HR MAX TEMP:  81; 6HR PCP: TRACE;                

PORT ISABEL    MOCLDY    77  73  87 CALM      29.84F                  
6HR MIN TEMP:  76; 6HR MAX TEMP:  82; 6HR PCP:  0.19;                

*SOUTH PADRE   CLOUDY    82  77  83 SE6       29.84F HX  91           
HARLINGEN      CLOUDY    76  76 100 CALM      29.85F                  
6HR MIN TEMP:  76; 6HR MAX TEMP:  79; 6HR PCP:  0.57;                


Return to Home page


Western Regional Climate Center, wrcc@dri.edu